Location: Chantarel
(45.1638°N, 1.7873°E)
Time: 13:26:48
(UTC+00:00)

GP-B - Pass Details

Date: 03 March 2021
Orbit: 631 x 635 km, 89.8° (Epoch: 16 April)

Event Time Altitude Azimuth Distance (km) Brightness Sun altitude
Rises 19:21:10 0° 183° (S) 2,916 6.5 -18.1°
Reaches altitude 10° 19:23:23 10° 185° (S) 2,013 5.6 -18.4°
Maximum altitude 19:27:48 70° 269° (W) 678 3.4 -19.2°
Drops below altitude 10° 19:32:15 10° 354° (N) 2,031 5.9 -20.0°
Sets 19:34:30 0° 357° (N) 2,945 6.7 -20.4°
